Showing default

ALMUNTHER, 63240

Orbit data source: Space-Track

ALMUNTHER, 63240 is a Bahraini payload satellite in SSO that was launched on Sat, 15 Mar 2025 UTC via an FALCON 9 launch vehicle from the Air Force Western Test Range (AFWTR). Payload-class satellites include a variety of spacecraft equipped with specific instruments for various scientific and technological missions. These include communications satellites like Starlink; space stations such as the ISS; scientific satellites like the Hubble; Earth observation satellites from companies like Planet Labs, Umbra, and HawkEye 360; GPS; miniature CubeSats for education and research; and military/defense satellites.

Loading next visibility...
Identifier
63240, 2025-052AG
Orbit
SSO
Country
Flag of BHBH / BHR
Related business
Manufacturer
AMAN/BNSSA
Mission
Operational Civil Technology
Bus & Motor
CUBESAT 3U?, Unknown motor
Mass
3 kg wet, 3 kg dry
Launch date (UTC)
2025-03-15 (1 year ago)
Launch vehicle
FALCON 9
Launch site
Air Force Western Test Range (AFWTR)
Object type
Payload
Rocket body
Debris
Shape & HBR
Box, 0.1 m
Radar Cross Section
0.035 m², Small (<0.1 m²)

Expand to show TLE details & history
Last TLE update: 21 hours ago

TLE from 21 hours ago
0 ALMUNTHER
1 63240U 25052AG  26126.21788619  .00016108  00000-0  54785-3 0  9996
2 63240  97.3925  21.1794 0004436 309.2899  50.7948 15.30514365 63592
Epoch: 2026-05-06T05:13Z
TLE epoch observation values (Epoch: 2026-05-06T05:13:45.366Z)
Latitude
-0.00005°
Longitude
78.65884°
Altitude
475.461 km
Speed
7.629 km/s
True Right ascension
01h 24m 43s
True Declination
0° 00' 00"
Sunlit
Object was in daylight at epoch
Visualization orbit readout
Latitude
Unknown
Longitude
Unknown
Altitude
Unknown
Speed
Unknown
Apparent Right ascension
Unknown
Apparent Declination
Unknown
Sunlit
N/A
Visualization observer readout
Local Sidereal Time
10:26:35
Azimuth
Unknown
Elevation
Unknown
Doppler factor
Unknown
Orbital elements
Apogee altitude
474.266 km
Perigee altitude
468.189 km
Semi-major axis
6,849.365 km
Eccentricity
0.00044
Inclination
97.3925°
RAAN
21.1794°
Arg. of periapsis
309.2899°
True anomaly
50.8342°
Mean anomaly
50.7948°
Eccentric anomaly
50.8145°
Mean motion
3.82884 °/min
Orbital period
94.02 mins
BSTAR
0.00054785
Loading maneuver chart data...
Computing Atmospheric mass density...
Loading historical data...
Loading historical data...
Loading historical data...
Loading historical data...
Loading historical data...
Loading historical data...
Loading historical data...

Documentation

Showing up to 5 results
|